Regional Weather Roundup
Issued by NWS

Home | Current Version | Previous Version | Text Only | Print | Product List | Glossary Off
Versions: 1 2 3 4 5 6 7 8 9 10 11 12 13 14 15 16 17 18 19 20 21 22 23 24 25 26 27 28 29 30 31 32 33 34 35 36 37 38 39 40 41 42 43 44 45 46 47 48 49 50

000
ASUS43 KLOT 280802
RWRIL

ILLINOIS REGIONAL WEATHER ROUNDUP
NATIONAL WEATHER SERVICE CHICAGO/ROMEOVILLE IL
300 AM CDT THU MAY 28 2015

NOTE: "FAIR" INDICATES FEW OR NO CLOUDS BELOW 12,000 FEET WITH NO
SIGNIFICANT WEATHER AND/OR OBSTRUCTIONS TO VISIBILITY.

* THESE STATIONS ARE NOT UNDER NWS QUALITY CONTROL. THEY ALSO MAY NOT
  REPORT WEATHER SUCH AS PRECIPITATION OR FOG.

ILZ001-002-007-009-015-016-024-280900-
NORTHWEST ILLINOIS

CITY           SKY/WX    TMP DP  RH WIND       PRES   REMARKS
MOLINE         PTCLDY    62  55  77 CALM      30.14S
STERLING*      CLEAR     57  55  94 CALM      30.15F
$$

ILZ003-004-008-010-011-017-018-280900-
NORTH CENTRAL ILLINOIS

CITY           SKY/WX    TMP DP  RH WIND       PRES   REMARKS
ROCKFORD       CLEAR     58  55  90 SE6       30.16F
FREEPORT*      CLEAR     59  55  88 S6        30.16F
$$

ILZ005-006-012>014-019>023-280900-
NORTHEAST ILLINOIS

CITY           SKY/WX    TMP DP  RH WIND       PRES   REMARKS
CHICAGO-OHARE  PTCLDY    59  55  87 SW3       30.16S
CHICAGO-MIDWAY PTCLDY    63  56  78 S3        30.16S
AURORA         CLEAR     56  52  86 CALM      30.17S
WAUKEGAN       CLEAR     59  55  87 VRB6      30.15R
DUPAGE AIRPORT CLEAR     56  54  93 CALM      30.17R
WHEELING       CLEAR     55  53  93 CALM      30.18R
NORTHERLY ISL    N/A     63  54  72 S5          N/A
$$

LMZ740>746-280900-
SOUTHERN LAKE MICHIGAN

STATION/POSITION SKY/WX   TEMP    WIND        PRES    VSBY  WAVE
                          AIR SEA DIR/SP/G                  HT/PER
                          (F)     (DEG/KT/KT) (MB)    (MI)  (FT/S)
SOUTHERN BUOY              43 38  210/  8/  8 1021.6R         0
HARRISON CRIB              64     190/ 14/ 14   N/A
BURNHAM HARBOR             63     220/  4/  6   N/A
CALUMET HARBOR             62     200/  2/  5   N/A
BURNS HARBOR               60     180/  4/  5 1022.0R
MICHIGAN CITY              62     130/  7/  8   N/A
MICHIGAN CITY 6N           56 53  200/  2/  4   N/A           0
ST. JOSEPH                 56 55  160/  2/  2   N/A           0
$$

ILZ025>027-034>036-040-047-049-050-058-095>099-280900-
WEST-CENTRAL ILLINOIS

CITY           SKY/WX    TMP DP  RH WIND       PRES   REMARKS
QUINCY         MOCLDY    62  56  80 SE6       30.14F
$$

ILZ028>032-037-038-041>044-048-051>054-059>061-280900-
CENTRAL ILLINOIS

CITY           SKY/WX    TMP DP  RH WIND       PRES   REMARKS
DECATUR        CLEAR     58  54  86 CALM      30.17S
PEORIA         PTCLDY    61  56  83 NE3       30.16F
SPRINGFIELD    CLEAR     59  56  89 CALM      30.16F
TAYLORVILLE    NOT AVBL
$$

ILZ033-039-045-046-055>057-062-063-280900-
EAST-CENTRAL ILLINOIS

CITY           SKY/WX    TMP DP  RH WIND       PRES   REMARKS
CHAMPAIGN      PTCLDY    61  53  75 NE7       30.17S
$$

ILZ079-100>102-280900-
SOUTHWEST ILLINOIS

CITY           SKY/WX    TMP DP  RH WIND       PRES   REMARKS
BELLEVILLE     MOCLDY    60  60 100 NE1       30.13F
CAHOKIA*       MOCLDY    62  59  90 CALM      30.14S
SPARTA*        MOCLDY    65  64  97 CALM      30.14F
$$

ILZ064>066-069>071-074>076-080>082-084>086-088>090-092>094-280900-
SOUTH-CENTRAL ILLINOIS

CITY           SKY/WX    TMP DP  RH WIND       PRES   REMARKS
CARBONDALE     MOCLDY    70  67  90 CALM      30.14F
MT. VERNON     MOCLDY    64  59  82 CALM      30.15S
$$

ILZ067-068-072-073-078-083-087-091-280900-
SOUTHEAST ILLINOIS

CITY           SKY/WX    TMP DP  RH WIND       PRES   REMARKS
LAWRENCEVILLE  PTCLDY    63  62  97 S5        30.15S FOG
$$

ABBREVIATIONS USED IN REMARKS
   TC - TEMPERATURE IN CELSIUS
  WCI - WIND CHILL INDEX
   HX - HEAT INDEX
  VSB - VISIBILITY
$$




USA.gov is the U.S. government's official web portal to all federal, state and local government web resources and services.